Regional Weather Roundup
Issued by NWS

Home | Current Version | Previous Version | Text Only | Print | Product List | Glossary Off
Versions: 1 2 3 4 5 6 7 8 9 10 11 12 13 14 15 16 17 18 19 20 21 22 23 24 25 26 27 28 29 30 31 32 33 34 35 36 37 38 39 40 41 42 43 44 45 46 47 48 49 50

000
ASUS43 KMPX 171801
RWRMN
WEATHER ROUNDUP FOR MINNESOTA
NATIONAL WEATHER SERVICE TWIN CITIES/CHANHASSEN MN
100 PM CDT TUE OCT 17 2017


NOTE: "FAIR" INDICATES FEW OR NO CLOUDS BELOW 12,000 FEET WITH NO
SIGNIFICANT WEATHER AND/OR OBSTRUCTIONS TO VISIBILITY. N/A MEANS
CURRENT SKY AND/OR WEATHER CONDITIONS ARE NOT AVAILABLE.

MNZ060>063-068>070-171900-
   Twin Cities Metro

CITY           SKY/WX    TMP DP  RH WIND       PRES   REMARKS
TWIN CITIES    MOSUNNY   65  46  50 SW7       30.01F
6HR MIN TEMP:  47; 6HR MAX TEMP:  65;

ST PAUL        SUNNY     65  48  54 SE5       30.01F
CRYSTAL        SUNNY     65  44  46 S7        29.99F
BLAINE         MOSUNNY   66  46  48 S7        30.00F
LAKEVILLE      SUNNY     66  45  45 S5        30.01F
EDEN PRAIRIE   SUNNY     66  46  48 S5        30.00F
6HR MIN TEMP:  45; 6HR MAX TEMP:  66;

SOUTH ST PAUL  SUNNY     65  45  47 S5        30.00F
LAKE ELMO      FAIR      64  46  52 SW9       30.02S
$$
MNZ001>005-007-008-013>017-022>024-027-028-171900-
   Northwest Minnesota

CITY           SKY/WX    TMP DP  RH WIND       PRES   REMARKS
BEMIDJI        SUNNY     66  38  36 S9G17     29.89F
HALLOCK        SUNNY     66  37  34 S17G23    29.76F
ROSEAU         SUNNY     66  41  39 S18G25    29.80F
WARROAD        SUNNY     66  45  45 S12G17    29.81F
CROOKSTON      SUNNY     66  37  34 S17G23    29.83F
FOSSTON        SUNNY     64  36  34 S20       29.88F
DETROIT LAKES  SUNNY     63  39  42 SW10      29.93S
MOORHEAD       MOSUNNY   64  41  42 S10G17    29.89F
PARK RAPIDS    CLOUDY    68  40  35 SW14      29.92F
MAHNOMEN       FAIR      65  38  37 SW15G21   29.90S
$$
MNZ006-009>011-018-025>026-171900-
   North Central Minnesota

CITY           SKY/WX    TMP DP  RH WIND       PRES   REMARKS
BAUDETTE       SUNNY     67  37  33 MISG      29.84F
FLAG ISLAND    SUNNY     55  43  62 SE12      29.80F
INTL FALLS     SUNNY     68  35  29 SW10G18   29.87F
6HR MIN TEMP:  28; 6HR MAX TEMP:  68;

WASKISH        PTSUNNY   70  37  30 SW13      29.87F
BIG FORK       MOSUNNY   66  37  34 SW14G22   29.91F
LONGVILLE      CLOUDY    66  37  34 S7        29.93S
GRAND RAPIDS   SUNNY     66  38  35 S14       29.95S
CRANE LAKE     SUNNY     63  36  36 S8        29.92F
ORR            SUNNY     68  28  22 SW7       29.89F
COOK           SUNNY     66  36  32 S6        29.92F
WALKER         FAIR      63  39  40 S9        29.92S
$$
MNZ012-019>021-037-171900-
   Northeast Minnesota

CITY           SKY/WX    TMP DP  RH WIND       PRES   REMARKS
DULUTH         CLOUDY    66  38  35 SW13      29.96S
6HR MIN TEMP:  41; 6HR MAX TEMP:  66;

ELY            SUNNY     63  30  29 SW12      29.94S
HIBBING        SUNNY     66  37  34 VRB5      29.94F
EVELETH        SUNNY     63  21  20 SW8       29.95F
DULUTH HARBOR  MOSUNNY   68  45  42 SW6       29.95F
TWO HARBORS    SUNNY     72  45  37 S10       29.93F
GRAND MARAIS     N/A     55  44  66 SW8       29.93F
G MARAIS ARPRT SUNNY     61  32  33 S6        29.95F
$$
MNZ029>031-032-039>041-046>048-054>057-064-171900-
   West Central Minnesota

CITY           SKY/WX    TMP DP  RH WIND       PRES   REMARKS
FERGUS FALLS   SUNNY     66  43  42 SW12      29.93F
WHEATON        SUNNY     73  34  23 SW9       29.94F
MORRIS         SUNNY     70  43  37 SW10      29.95F
ALEXANDRIA     SUNNY     67  39  35 S12       29.97F
ELBOW LAKE     FAIR      67  41  38 W10       29.94F
WADENA         CLOUDY    66  39  37 SW8       29.93F
GLENWOOD       SUNNY     66  39  37 SW7       29.98F
APPLETON       SUNNY     70  39  32 S6        29.96F
BENSON         SUNNY     70  39  32 SW8       29.98F
ORTONVILLE     SUNNY     73  37  27 W7        29.95F
MADISON        SUNNY     75  37  25 W7        29.97F
WILLMAR        FAIR      70  43  37 S6        29.99F
$$
MNZ033>034-036-042>043-049>051-058-059-171900-
   Central Minnesota

CITY           SKY/WX    TMP DP  RH WIND       PRES   REMARKS
ST CLOUD       SUNNY     67  43  41 S7        29.98F
6HR MIN TEMP:  34; 6HR MAX TEMP:  67;

SAUK CENTRE    FAIR      68  42  38 S8        29.97F
PAYNESVILLE    SUNNY     69  40  34 SW7       29.99S
AITKIN         CLOUDY    64  37  36 S10       29.93F
PINE RIVER     CLOUDY    64  39  39 S8        29.96F
BRAINERD       SUNNY     67  38  34 S12       29.95F
STAPLES        SUNNY     66  36  32 S8        29.94F
LONG PRAIRIE   FAIR      66  39  37 SE13      29.96F
LITTLE FALLS     N/A    N/A N/A N/A SW9         N/A
LITCHFIELD     SUNNY     72  41  33 S3        29.99F
BUFFALO        SUNNY     65  45  47 S5        30.00F
MAPLE LAKE     SUNNY     68  47  47 S5        30.00S
HUTCHINSON     SUNNY     68  47  45 SW5       30.00F
$$
MNZ037-044-045-052-053-171900-
   East Central Minnesota

CITY           SKY/WX    TMP DP  RH WIND       PRES   REMARKS
PRINCETON      SUNNY     70  45  40 S6        29.98F
MORA           SUNNY     64  43  45 S7        29.99F
CAMBRIDGE      SUNNY     68  48  49 S8        29.99F
RUSH CITY      SUNNY     65  45  47 S6        29.99F
MOOSE LAKE     CLOUDY    64  37  36 S8        29.94F
HINCKLEY       FAIR      66  45  45 S8        29.97F
CLOQUET        CLOUDY    64  36  34 S8        29.96S
MCGREGOR       CLOUDY    64  37  36 S10       29.95F
$$
MNZ071>073-080-081-089-090-097-098-171900-
   Southwest Minnesota

CITY           SKY/WX    TMP DP  RH WIND       PRES   REMARKS
MONTEVIDEO     SUNNY     73  43  33 W5        29.98F
GRANITE FALLS  SUNNY     73  43  34 SW9       30.00F
CANBY          SUNNY     74  37  26 SW9       29.99F
MARSHALL       SUNNY     73  37  27 W12       30.00F
REDWOOD FALLS  SUNNY     71  38  29 SW7       30.00F
OLIVIA         SUNNY     70  43  37 SW6       29.99F
PIPESTONE      SUNNY     72  37  28 W7        30.02F
WORTHINGTON    SUNNY     72  41  32 SW9       30.04F
JACKSON        SUNNY     72  39  30 SW5       30.04F
TRACY          SUNNY     74  38  27 SW10      30.01S
SLAYTON        SUNNY     71  38  30 SW9       30.04S
$$
MNZ065>067-074>077-082>085-091>093-171900-
   South Central Minnesota

CITY           SKY/WX    TMP DP  RH WIND       PRES   REMARKS
MANKATO        SUNNY     68  43  40 SW8       30.03F
NEW ULM        SUNNY     70  37  30 S5        30.01F
ST JAMES       SUNNY     72  41  33 SW3       30.02F
FAIRMONT       SUNNY     71  43  36 SW9       30.03F
GLENCOE        SUNNY     69  45  42 S5        30.00F
FARIBAULT      SUNNY     68  45  42 S7        30.03F
OWATONNA       SUNNY     70  43  37 S8        30.03F
WASECA         SUNNY     68  41  37 SW5       30.04F
ALBERT LEA     SUNNY     70  45  40 S7        30.04F
$$
MNZ078>079-086>088-094>096-171900-
   Southeast Minnesota

CITY           SKY/WX    TMP DP  RH WIND       PRES   REMARKS
ROCHESTER      SUNNY     68  46  45 S9        30.05F
6HR MIN TEMP:  43; 6HR MAX TEMP:  68;

RED WING       SUNNY     64  43  45 CALM      30.01F
STANTON        SUNNY     69  43  39 SW8       30.00F
DODGE CENTER   SUNNY     70  39  32 SW10      30.04F
WINONA         SUNNY     68  46  45 CALM      30.04F
AUSTIN         SUNNY     66  43  42 SW5       30.05F
PRESTON        SUNNY     65  44  45 SW7       30.07F
$$
ABBREVIATIONS USED IN REMARKS
   TC - TEMPERATURES IN CELSIUS
  WCI - WIND CHILL INDEX
   HX - HEAT INDEX
  VSB - VISIBILITY
$$




USA.gov is the U.S. government's official web portal to all federal, state and local government web resources and services.